User: anonymous   Login
Location: Arbon
(43.0005°N, 0.7472°E)
Time: 15:17:43
(UTC+00:00)
Language:

Cosmos 1680 Rocket - Orbit

View from above orbital plane
View from above orbital plane
View from above satellite
View from above satellite

Ground track
Ground track

The orbit data is extracted from the following two-line orbital elements,

1 16012U 85079B   20292.78515770 +.00000057 +00000-0 +28381-4 0  9992
2 16012 074.0604 058.1053 0014759 013.2015 346.9521 14.36339748838695
Epoch (UTC): 18 October 2020 18:50:37
Eccentricity: 0.0014759
inclination: 74.0604°
perigee height: 760 km
apogee height: 781 km
right ascension of ascending node: 58.1053°
argument of perigee: 13.2015°
revolutions per day: 14.36339748
mean anomaly at epoch: 346.9521°
orbit number at epoch: 83869

The dashed part of the orbit path shows where the satellite is in the earth's shadow,  

DLR